Location: Arena
(42.5007°N, 9.4650°E)
Time: 12:12:43
(UTC+00:00)

FALCON 9 DEB - Pass Details

Date: 09 April 2020
Orbit: 428 x 442 km, 53.0° (Epoch: 05 June)

Event Time Altitude Azimuth Distance (km) Brightness Sun altitude
Rises 19:25:59 0° 251° (WSW) 2,426 7.6 -16.1°
Reaches altitude 10° 19:28:11 10° 259° (WSW) 1,558 6.7 -16.5°
Maximum altitude 19:31:31 41° 331° (NNW) 659 4.4 -17.0°
Drops below altitude 10° 19:34:52 10° 43° (NE) 1,560 5.8 -17.6°
Enters shadow 19:35:01 - 44° (NE) 1,620 5.9 -17.6°
